Location: Demb�r�
(14.9913°N, 3.1194°W)
Time: 18:31:15
(UTC+00:00)

Daily predictions for brighter satellites

Satellite Brightness Start Highest point End
(mag) Time Altitude Azimuth Time Altitude Azimuth Time Altitude Azimuth
NOSS 3-1 (A) 4.4 18:30:06 10° NNW 18:38:28 63° ENE 18:47:18 10° SE
ATLAS 3B CENTAUR R/B 2.7 18:34:20 10° WNW 18:44:15 61° NNE 18:48:32 10° E
Delta 198 4.3 18:39:43 10° WSW 18:45:20 81° SSE 18:51:52 10° ENE
Cosmos 1626 3.9 18:47:33 10° NE 18:49:33 14° E 18:51:33 10° ESE
Cosmos 1892 Rocket 4.0 18:45:22 10° NNE 18:49:36 42° E 18:53:49 10° SSE
Meteor 2-21 Rocket 4.4 18:43:55 10° N 18:49:57 72° E 18:56:03 10° S
Cosmos 1544 Rocket 3.5 18:46:08 10° S 18:50:30 80° E 18:54:53 10° N
Atlas 2A Centaur Rocket 3.9 18:51:28 10° WSW 18:52:41 12° SW 18:53:41 10° SSW
Cosmos 1452 Rocket 4.2 18:48:30 10° NNW 18:53:40 59° WSW 18:58:50 10° S
Cosmos 1943 3.6 18:48:50 10° S 18:53:59 38° ESE 18:59:09 10° NE
Meteor 1-24 Rocket 4.1 18:49:49 10° NNE 18:54:44 38° E 18:59:35 10° SSE
CZ-4 R/B 4.5 18:51:22 10° S 18:55:31 88° W 18:59:40 10° NNW
ADEOS Rocket 3.7 18:50:10 10° N 18:55:59 55° WNW 19:01:24 10° SSW
Centaur D-1AR AC-39 2.3 18:48:36 10° WNW 18:57:33 71° SSW 19:00:55 11° ESE
Meteor 2-5 Rocket 3.6 18:54:24 10° N 18:59:54 68° E 19:05:23 10° SSE
Cosmos 332 Rocket 3.8 18:55:37 10° N 19:00:31 77° ENE 19:05:24 10° SSE
CSL-04 Rocket 3.8 18:57:11 10° SSE 19:02:19 50° ENE 19:07:24 10° N
Cosmos 1386 Rocket 4.4 18:56:42 10° N 19:02:37 61° E 19:08:33 10° SSE
KORONAS-FOTON 3.8 19:01:32 10° N 19:05:18 81° W 19:09:03 10° S
STARLINK-60 2.9 19:03:29 10° SW 19:06:46 89° WNW 19:10:02 10° NE
CZ-2D R/B 3.1 19:08:35 10° SSE 19:12:24 86° ENE 19:16:13 10° N
Cosmos 1110 Rocket 3.9 19:07:30 10° N 19:12:38 63° ENE 19:17:43 10° SSE
USA 234 3.5 19:09:34 10° NNE 19:16:04 75° NW 19:22:35 10° SW
STARLINK-29 3.7 19:13:50 10° S 19:16:40 30° SE 19:17:33 26° E
Okean 1-7 Rocket 3.5 19:13:23 10° N 19:17:46 88° E 19:22:10 10° S
USA 81 4.1 19:13:59 10° N 19:19:15 84° W 19:24:31 10° S
Cosmos 1818 3.5 19:13:52 10° SSW 19:19:15 87° ESE 19:24:41 10° NNE
CZ-2C R/B 4.3 19:19:53 19° E 19:20:34 20° ENE 19:24:07 10° NNE
Cosmos 1758 3.6 19:17:06 10° S 19:21:10 72° W 19:25:14 10° N
STARLINK-1066 4.5 19:20:13 10° N 19:22:34 20° NE 19:22:34 20° NE
STARLINK-1081 4.5 19:20:40 10° N 19:22:56 20° NE 19:22:56 20° NE
STARLINK-1070 4.5 19:21:07 10° N 19:23:23 20° NE 19:23:23 20° NE
STARLINK-1069 4.4 19:21:31 10° N 19:23:51 21° NE 19:23:51 21° NE
STARLINK-1085 4.4 19:21:57 10° N 19:24:17 21° NE 19:24:17 21° NE
STARLINK-1086 4.4 19:22:23 10° N 19:24:40 21° NE 19:24:40 21° NE
STARLINK-1095 4.4 19:22:51 10° N 19:25:07 21° NE 19:25:07 21° NE
STARLINK-1077 4.4 19:23:17 10° N 19:25:32 21° NE 19:25:32 21° NE
STARLINK-1075 4.4 19:23:42 10° N 19:25:58 22° NE 19:25:58 22° NE
STARLINK-1093 4.4 19:24:06 10° N 19:26:26 22° NE 19:26:26 22° NE
STARLINK-1074 4.4 19:24:33 10° N 19:26:53 22° NE 19:26:53 22° NE
STARLINK-1087 4.3 19:25:01 10° N 19:27:16 22° NE 19:27:16 22° NE
CZ-4 R/B 3.1 19:24:24 10° SSW 19:27:56 33° W 19:31:26 10° NW
STARLINK-1088 4.3 19:25:27 10° N 19:27:42 23° NE 19:27:42 23° NE
STARLINK-1115 4.3 19:25:51 10° N 19:28:11 23° NE 19:28:11 23° NE
STARLINK-1076 4.3 19:26:18 10° N 19:28:37 24° NE 19:28:37 24° NE
STARLINK-1092 4.3 19:26:44 10° N 19:29:03 24° NE 19:29:03 24° NE
STARLINK-1080 4.3 19:27:11 10° N 19:29:26 24° NE 19:29:26 24° NE
STARLINK-1090 4.3 19:27:39 10° N 19:29:52 24° NE 19:29:52 24° NE
STARLINK-1089 4.3 19:28:04 10° N 19:30:18 24° NE 19:30:18 24° NE
STARLINK-1107 4.2 19:28:31 10° N 19:30:44 24° NE 19:30:44 24° NE
SL-14 R/B 3.1 19:27:32 10° N 19:31:30 71° E 19:35:25 10° S
Meteor 2-15 Rocket 4.4 19:26:22 10° S 19:32:28 89° W 19:38:32 10° N
ARGOS 4.1 19:32:59 26° E 19:33:28 26° ENE 19:37:54 10° NNE
OAO 3 Rocket 4.1 19:28:54 10° WNW 19:33:29 42° SW 19:36:35 19° SSE
H-2A R/B 3.3 19:25:00 10° WNW 19:35:33 28° N 19:37:51 17° NE
Cosmos 1726 2.1 19:35:19 10° S 19:38:57 53° E 19:42:35 10° NNE
USA 186 4.4 19:41:32 12° NNE 19:41:32 12° NNE 19:41:54 10° NNE
H-2A R/B 2.5 19:40:33 33° ESE 19:42:14 42° ENE 19:47:09 10° N
Meteor 1-16 Rocket 4.0 19:39:16 10° S 19:44:27 58° E 19:49:42 10° NNE
CZ-2C R/B 4.1 19:39:57 10° NE 19:41:37 19° NE 19:41:37 19° NE
IRS-1A Rocket 4.4 19:42:07 28° SE 19:44:42 49° ENE 19:50:09 10° N
Cosmos 1302 Rocket 3.9 19:44:11 10° N 19:49:25 63° ENE 19:51:18 38° SE
Meteor 2-10 4.0 19:48:46 10° S 19:53:58 85° W 19:59:23 10° N
GPS 2-15 Rocket1 3.6 19:49:32 10° WNW 19:54:20 51° N 19:55:17 44° NE
ARGOS Delta rocket 4.0 19:52:45 13° S 19:57:08 82° WSW 20:02:22 10° NNW
STARLINK-52 4.3 19:54:18 10° SW 19:56:19 35° SW 19:56:19 35° SW
Hubble Space Telescope 1.0 19:54:25 10° WSW 19:58:28 60° NNW 19:58:50 57° N
Cosmos 1953 3.5 19:54:56 10° SSW 19:58:41 43° W 20:02:26 10° NNW
Cosmos 2297 3.7 19:54:40 10° NNW 20:00:23 86° WSW 20:03:13 31° SSE
OAO 2 Rocket 3.5 19:57:37 10° WNW 20:02:42 64° SW 20:03:29 55° S
ATLAS 5 CENTAUR R/B 2.5 19:59:05 10° W 20:03:25 68° N 20:09:52 30° ENE
Centaur AC-42 2.4 20:00:04 10° WNW 20:04:50 41° N 20:05:15 39° NNE
Milstar 3 Cent rocket 4.5 19:57:05 10° W 20:05:47 56° SSW 20:16:42 25° SE
ATLAS 5 CENTAUR R/B 2.1 20:02:45 10° SSW 20:05:30 42° SW 20:05:30 42° SW
GEOS 3 Rocket 3.4 20:11:27 77° SSE 20:11:50 90° ENE 20:16:58 10° NNW
Delta 2 Rocket 3.8 20:07:22 10° NW 20:11:34 72° NNW 20:11:34 72° NNW
Nadezhda 1 Rocket 3.9 20:11:09 10° S 20:17:31 79° E 20:23:54 10° N
DMSP B5D2-2 4.1 20:13:42 10° N 20:18:54 78° WNW 20:24:08 10° SSW
Ariane Rocket 3.8 20:25:17 36° SSW 20:26:51 47° WSW 20:31:43 10° NNW
Cosmos 2369 Rocket 3.9 20:25:23 10° N 20:27:18 21° NNE 20:27:18 21° NNE
Cosmos 1943 Rocket 3.4 20:30:52 10° N 20:33:48 32° N 20:33:48 32° N
Yuri Rocket 4.4 20:33:58 10° WSW 20:43:10 81° SSW 20:43:10 81° SSW
